SCP
0 0 0 0 0 0 0 0 0 0 0 0 0 0 0 0 0 0 0 0 0 0 0 0 0 0 0 0 0 0 0 0 0 0 0 0 0 0 0 0 0 0 0 0
0 0 0 0 0 0 0 0 0 0 0 0 0 0 0 0 0 0 0 0 0 0 0 0 0 0 0 0 0 0 0 0 0 0 0 0 0 0 0 0 0 0 0 0
0 0 0 0 0 0 0 0 0 0 0 0 0 0 0 0 0 0 0 0 0 0 0 0 0 0 0 0 0 0 0 0 0 0 0 0 0 0 0 0 0 0 0 0
0 0 0 0 0 0 0 0 0 0 0 0 0 0 0 0 0 0 0 0 0 0 0 0 0 0 0 0 0 0 0 0 0 0 0 0 0 0 0 0 0 0 0 0
0 0 0 0 0 0 0 0 0 0 0 0 0 0 0 0 0 0 0 0 0 0 0 0 0 0 0 0 0 0 0 0 0 0 0 0 0 0 0 0 0 0 0 0
0 0 0 0 0 0 0 0 0 0 0 0 0 0 0 -0 -0 0 0 0 0 0 0 0 0 0 0 0 0 0 0 0 0 0 0 0 0 0 0 0 0 0 0 0
0 0 0 0 0 0 0 0 0 0 0 0 0 0 0 0 0 0 0 0 0 0 0 0 0 0 0 0 0 0 0 0 0 0 0 0 0 0 0 0 0 0 0 0
0 0 0 0 0 0 0 0 0 0 0 0 0 0 0 0 0 0 0 0 0 0 0 0 0 0 0 0 0 0 0 0 0 0 0 0 0 0 0 0 0 0 0 0
0 0 0 0 0 0 0 0 0 0 0 0 0 0 0 0 0 0 0 0 0 0 0 0 0 0 0 0 0 0 0 0 0 0 0 0 0 0 0 0 0 0 0 0
0 0 0 0 0 0 0 0 0 0 0 0 0 0 0 0 0 0 0 0 0 0 0 0 0 0 0 0 0 0 0 0 0 0 0 0 0 0 0 0 0 0 0 0
0 0 0 0 0 0 0 0 0 0 0 0 0 0 0 0 0 0 0 0 0 0 0 0 0 0 0 0 0 0 0 0 0 0 0 0 0 0 0 0 0 0 0 0
0 0 0 0 0 0 0 0 0 0 0 0 0 0 0 0 0 0 0 0 0 0 0 0 0 0 0 0 0 0 0 0 0 0 0 0 0 0 0 0 0 0 0 0
0 0 0 0 0 0 0 0 0 0 0 0 0 0 0 0 0 0 0 0 0 0 0 0 0 0 0 0 0 0 0 0 0 0 0 0 0 0 0 0 0 0 0 0
0 0 0 0 0 0 0 0 0 0 0 0 0 0 0 0 0 0 0 0 0 0 0 0 0 0 0 0 0 0 0 0 0 0 0 0 0 0 0 0 0 0 0 0
0 0 0 0 0 0 0 0 0 0 0 0 0 0 0 0 0 0 0 0 0 0 0 0 0 0 0 0 0 0 0 0 0 0 0 0 0 0 0 0 0 0 0 0
0 0 0 0 0 0 0 0 0 0 0 0 0 0 0 0 0 0 0 0 0 0 0 0 0 0 0 0 0 0 0 0 0 0 0 0 0 0 0 0 0 0 0 0
0 0 0 0 0 0 0 0 0 0 0 0 0 0 0 0 0 0 0 0 0 0 0 0 0 0 0 0 0 0 0 0 0 0 0 0 0 -0 -0 -0 -0 -0 0 0
0 0 0 0 0 0 0 0 0 0 0 0 0 0 0 0 0 0 0 0 0 0 0 0 0 0 0 0 0 0 0 0 0 0 -0 -0 -0 -0 -0 0 -0 0 0 0
0 0 0 0 0 0 0 0 0 0 0 0 0 0 0 0 0 0 0 0 0 0 0 0 0 0 0 0 0 0 0 0 0 0 0 -0 -0 -0 0 0 0 0 0 0
0 0 0 0 0 0 0 0 0 0 0 0 0 0 0 0 0 0 0 0 0 0 0 0 0 0 0 0 0 0 0 0 0 -0 0 -0 -0 -0 -0 -0 0 -0 0 0
0 0 0 0 0 0 0 0 0 0 0 0 0 0 0 0 0 0 0 0 0 0 0 0 0 0 0 0 0 0 0 0 0 0 0 0 0 0 0 0 0 0 0 0
0 0 0 0 0 0 0 0 0 0 0 0 0 0 0 0 0 0 0 0 0 0 0 0 0 0 0 0 -0 -0 -0 -0 -0 0 0 0 0 0 0 0 0 0 0 0
0 0 0 0 0 0 0 0 0 0 0 0 0 0 0 0 0 0 0 0 0 0 0 0 0 0 -0 -0 -0 -0 -0 0 0 0 0 0 0 0 0 0 0 0 0 0
0 0 0 0 0 0 0 0 0 0 0 0 0 0 0 0 0 0 0 0 0 0 0 0 0 -0 -0 -0 -0 -0 0 0 0 0 0 0 0 0 0 0 0 0 0 0
0 0 0 0 0 0 0 0 0 0 0 0 0 0 0 0 0 0 0 0 0 0 0 0 0 -0 0 0 0 0 0 0 0 0 0 0 0 0 0 0 0 0 0 0
0 0 0 0 0 0 0 0 0 0 0 0 0 0 0 0 0 0 0 0 0 0 0 0 0 0 0 0 0 0 0 0 0 0 0 0 0 0 0 0 0 0 0 0
Wind_Speed_500mb
4 9 13 17 10 6 12 9 6 5 3 3 10 16 23 47 41 46 52 51 53 53 44 47 48 49 50 52 60 68 71 73 76 80 81 83 82 79 77 72 66 63 63 59
10 7 13 10 11 8 8 7 5 5 5 5 9 22 20 27 32 47 50 58 60 64 63 56 55 56 57 57 56 58 68 71 73 79 79 83 79 84 80 78 77 69 66 62
12 4 19 13 9 10 4 11 9 9 5 4 9 17 11 11 22 41 53 58 58 55 44 25 28 24 35 54 58 60 60 66 70 72 77 83 86 89 87 88 86 84 75 68
7 7 13 10 9 11 7 14 10 7 7 6 4 10 11 10 19 14 47 37 42 44 43 33 23 22 28 28 38 57 57 60 63 73 81 82 83 86 81 86 87 86 81 76
11 18 12 7 12 13 10 10 9 5 8 5 6 2 14 6 12 18 19 19 23 12 9 7 1 3 6 17 23 30 43 48 53 62 75 82 86 84 83 81 76 74 76 79
6 3 7 11 7 6 19 13 13 10 5 4 10 12 10 8 11 1 5 13 23 17 15 9 6 7 6 2 7 13 18 30 41 48 58 72 79 82 82 80 77 75 70 68
4 2 0 5 13 9 7 13 3 5 4 11 4 1 15 17 10 6 15 26 24 12 6 4 3 4 7 9 9 11 14 19 26 34 43 50 57 65 69 71 71 70 67 63
13 6 14 9 13 17 15 15 11 15 9 7 4 13 11 9 8 10 7 7 12 15 12 7 5 7 11 13 13 13 11 13 15 20 23 29 37 45 51 56 59 61 61 58
12 9 2 4 5 10 11 10 9 14 6 7 8 13 19 2 12 15 18 21 21 19 22 21 15 10 8 10 8 8 8 8 7 7 10 15 22 29 35 42 48 51 52 52
10 3 3 2 7 8 8 15 7 5 4 7 8 9 11 6 12 9 13 24 26 25 25 23 23 22 20 17 13 9 6 4 3 2 1 5 11 18 25 31 34 37 40 44
9 7 3 4 11 17 5 5 7 9 10 11 3 11 14 5 18 19 11 16 23 24 26 29 29 27 26 22 18 16 17 19 17 12 9 8 10 13 16 19 22 28 32 37
4 8 9 14 3 5 2 14 14 9 10 5 6 20 5 13 17 18 11 12 12 12 13 16 16 17 18 21 18 17 13 8 9 8 7 12 17 22 25 29 33 36 38 41
6 4 5 11 3 5 9 8 7 8 7 18 11 19 8 15 18 7 4 7 7 10 11 10 6 7 11 13 11 7 9 13 15 16 19 24 29 33 37 41 45 47 50 52
6 3 9 17 7 2 8 7 10 12 7 23 18 12 10 11 11 4 3 3 8 10 11 9 6 9 11 13 14 16 18 23 26 27 28 30 33 37 42 46 50 54 57 59
7 6 5 4 1 5 5 4 6 26 40 19 29 25 13 23 15 6 3 8 7 7 8 9 11 13 17 17 17 19 24 28 31 32 34 37 38 42 46 49 50 52 56 61
7 8 6 3 12 8 12 24 22 19 11 11 4 19 14 15 20 9 8 9 9 8 9 11 14 17 19 21 23 24 27 31 34 36 38 40 42 44 46 48 50 50 51 52
14 11 6 8 6 3 15 31 29 15 12 12 21 20 13 7 14 14 14 12 10 7 9 12 17 20 22 25 28 32 35 38 40 42 44 46 47 49 50 52 54 53 51 51
14 12 4 6 10 11 10 2 9 28 9 23 11 8 13 15 15 16 17 20 15 11 7 7 12 17 24 29 32 35 39 42 45 47 50 53 54 54 53 54 56 56 56 53
18 9 7 8 8 9 10 10 14 15 17 33 20 13 19 21 19 10 20 16 16 10 5 10 16 23 29 35 40 44 47 50 53 55 57 59 62 62 62 60 58 58 59 56
7 4 6 5 8 17 14 8 20 12 14 9 33 26 25 29 8 7 28 15 9 4 7 14 22 30 38 44 49 52 52 53 53 54 56 58 61 64 66 65 64 61 61 61
12 6 23 15 7 13 8 11 30 12 13 4 12 23 37 8 5 28 15 10 2 7 16 24 31 39 46 49 48 47 47 47 48 49 51 53 55 58 60 62 62 64 61 60
18 15 7 6 8 12 18 5 17 10 16 24 29 26 24 24 20 14 6 7 15 21 27 33 39 45 46 44 44 41 40 41 41 44 47 49 52 56 61 65 63 61 62 61
4 11 9 14 10 2 22 2 8 19 41 25 29 21 18 12 7 6 12 19 25 30 34 36 39 38 34 39 39 37 39 42 45 48 52 55 57 57 60 65 64 62 61 63
7 7 5 7 7 2 11 23 25 29 34 31 24 13 5 2 8 14 19 23 32 33 32 34 34 34 33 38 41 46 48 50 53 56 58 59 60 60 60 58 59 59 57 58
9 17 11 4 1 12 12 24 24 25 20 14 7 1 7 14 18 25 32 35 37 38 38 41 44 46 47 51 52 54 57 59 61 62 61 61 61 60 61 58 56 53 47 45
17 12 9 9 29 13 24 30 22 17 14 10 11 15 20 26 32 36 40 40 42 44 44 47 49 56 57 59 62 62 64 65 65 67 64 62 61 56 54 52 47 39 33 26
Wind_Direction_500mb
81 103 188 194 163 121 133 122 182 240 56 227 238 267 273 282 285 276 273 270 271 268 269 267 260 254 252 246 245 245 245 243 241 240 240 241 243 245 245 250 251 251 249 249
52 208 207 129 131 118 128 124 211 302 45 157 350 284 267 272 264 266 274 275 273 277 279 273 271 262 251 248 246 245 245 244 243 242 244 244 246 248 250 254 255 254 252 250
155 208 142 128 131 140 170 159 199 193 30 52 349 291 308 293 274 275 270 275 277 277 283 272 284 271 253 245 242 242 244 244 245 244 243 244 244 247 248 250 253 256 257 253
200 142 135 135 162 138 183 201 172 148 100 230 23 283 299 295 299 286 280 301 294 281 272 283 283 262 244 243 240 239 242 244 245 244 243 244 245 246 252 252 255 255 260 255
231 165 144 156 192 156 209 123 135 88 100 54 329 19 271 337 284 275 322 12 24 12 252 232 270 45 258 247 244 244 241 242 244 244 244 245 247 251 255 257 256 256 258 256
147 108 156 171 75 136 151 84 52 54 87 313 226 181 275 209 220 200 336 26 14 36 66 73 68 57 60 76 240 253 250 244 245 246 245 246 247 250 253 256 259 263 265 264
41 217 212 136 83 28 91 96 20 359 7 227 328 150 246 257 246 253 320 323 346 359 7 24 30 20 357 331 312 296 278 259 251 249 247 248 249 251 255 259 263 266 268 269
156 242 167 184 180 169 192 163 156 192 197 247 71 232 249 224 296 278 270 339 19 37 52 64 39 344 337 330 319 312 290 271 265 257 251 247 247 252 257 261 265 267 269 270
158 261 191 138 154 142 198 214 154 103 24 60 225 287 300 109 54 89 84 80 67 71 77 66 56 36 15 360 347 335 325 303 284 270 264 258 255 257 261 264 265 267 267 267
195 124 358 159 113 33 160 160 82 5 135 252 266 268 226 213 154 114 91 73 62 70 72 67 64 60 57 41 28 17 18 28 58 110 133 246 256 259 259 260 264 268 270 269
144 133 304 108 212 160 137 188 61 129 156 181 235 253 223 162 164 146 129 69 61 69 75 76 70 64 62 57 60 73 89 97 84 67 43 10 331 307 299 295 288 282 280 277
188 138 174 199 263 256 323 202 159 150 217 252 174 252 310 189 142 126 106 71 63 73 93 98 86 72 64 65 75 87 86 64 40 23 350 329 319 312 309 304 297 292 291 288
174 205 64 348 346 356 216 203 167 104 80 208 155 256 46 98 127 81 94 58 74 106 126 125 114 56 43 58 63 38 349 337 326 310 297 289 288 288 288 290 290 290 290 290
75 92 178 216 145 317 196 191 181 160 187 233 225 257 175 227 168 110 96 110 123 97 91 85 63 38 24 18 0 349 338 332 331 328 321 311 303 296 292 289 288 287 285 285
116 172 175 229 117 262 249 246 213 206 228 198 265 232 194 202 193 199 190 157 152 114 82 58 42 31 23 18 11 355 344 339 336 329 324 318 311 306 301 298 295 292 290 288
186 175 138 257 198 210 257 247 243 248 273 289 179 258 206 234 234 212 184 171 145 103 69 54 44 31 20 14 8 1 352 345 340 335 329 325 323 317 313 309 303 297 291 288
165 146 121 264 166 160 285 231 212 213 202 167 230 245 170 207 225 188 172 158 139 103 66 48 35 24 13 5 358 352 346 342 339 338 336 333 329 327 323 320 317 313 307 301
152 159 106 186 154 217 244 42 197 215 217 220 238 163 173 189 180 170 165 159 148 132 99 52 28 13 0 355 348 344 339 334 332 331 329 328 329 329 327 322 319 317 314 310
174 165 159 179 195 303 293 198 171 171 253 220 223 175 167 149 150 158 161 155 150 131 69 18 5 352 345 339 336 334 331 328 326 326 325 325 325 326 326 326 324 321 317 315
123 275 173 148 196 202 229 200 153 127 280 200 192 184 176 157 172 231 172 152 137 89 359 340 336 335 333 330 327 325 325 323 322 319 319 319 319 319 318 319 318 318 317 317
188 199 218 191 214 281 254 166 148 138 240 158 167 176 163 145 173 142 149 145 33 344 337 335 336 336 332 326 321 319 318 316 316 315 315 314 313 311 309 308 309 310 311 312
179 176 188 148 199 263 180 110 167 166 119 129 121 123 120 122 119 117 94 8 346 337 331 326 326 328 327 317 314 313 311 311 313 315 316 317 317 316 312 309 306 304 305 306
223 187 183 179 206 345 183 58 196 154 143 138 131 121 118 109 78 357 333 322 319 321 320 319 321 322 322 312 309 309 309 310 309 310 312 313 313 314 313 312 311 306 304 303
268 186 158 75 294 179 132 129 116 131 131 132 127 124 94 359 315 310 308 304 303 303 301 300 306 310 312 305 305 306 303 303 305 306 308 309 309 309 310 310 310 310 311 309
187 142 165 258 154 108 119 142 130 129 137 152 154 178 313 310 308 305 303 299 297 297 296 296 298 302 306 303 298 298 300 302 302 301 303 304 305 306 307 307 308 308 309 310
183 167 166 215 185 170 187 171 166 173 191 224 259 277 288 294 295 295 295 297 297 297 298 297 299 299 299 299 298 296 296 297 299 299 300 303 302 303 303 303 304 306 309 310
Wind_Speed_850mb
4 9 13 17 10 6 12 9 6 5 3 3 10 16 23 47 41 46 52 51 53 53 44 47 48 49 50 52 60 68 71 73 76 80 81 83 82 79 77 72 66 63 63 59
10 7 13 10 11 8 8 7 5 5 5 5 9 22 20 27 32 47 50 58 60 64 63 56 55 56 57 57 56 58 68 71 73 79 79 83 79 84 80 78 77 69 66 62
12 4 19 13 9 10 4 11 9 9 5 4 9 17 11 11 22 41 53 58 58 55 44 25 28 24 35 54 58 60 60 66 70 72 77 83 86 89 87 88 86 84 75 68
7 7 13 10 9 11 7 14 10 7 7 6 4 10 11 10 19 14 47 37 42 44 43 33 23 22 28 28 38 57 57 60 63 73 81 82 83 86 81 86 87 86 81 76
11 18 12 7 12 13 10 10 9 5 8 5 6 2 14 6 12 18 19 19 23 12 9 7 1 3 6 17 23 30 43 48 53 62 75 82 86 84 83 81 76 74 76 79
6 3 7 11 7 6 19 13 13 10 5 4 10 12 10 8 11 1 5 13 23 17 15 9 6 7 6 2 7 13 18 30 41 48 58 72 79 82 82 80 77 75 70 68
4 2 0 5 13 9 7 13 3 5 4 11 4 1 15 17 10 6 15 26 24 12 6 4 3 4 7 9 9 11 14 19 26 34 43 50 57 65 69 71 71 70 67 63
13 6 14 9 13 17 15 15 11 15 9 7 4 13 11 9 8 10 7 7 12 15 12 7 5 7 11 13 13 13 11 13 15 20 23 29 37 45 51 56 59 61 61 58
12 9 2 4 5 10 11 10 9 14 6 7 8 13 19 2 12 15 18 21 21 19 22 21 15 10 8 10 8 8 8 8 7 7 10 15 22 29 35 42 48 51 52 52
10 3 3 2 7 8 8 15 7 5 4 7 8 9 11 6 12 9 13 24 26 25 25 23 23 22 20 17 13 9 6 4 3 2 1 5 11 18 25 31 34 37 40 44
9 7 3 4 11 17 5 5 7 9 10 11 3 11 14 5 18 19 11 16 23 24 26 29 29 27 26 22 18 16 17 19 17 12 9 8 10 13 16 19 22 28 32 37
4 8 9 14 3 5 2 14 14 9 10 5 6 20 5 13 17 18 11 12 12 12 13 16 16 17 18 21 18 17 13 8 9 8 7 12 17 22 25 29 33 36 38 41
6 4 5 11 3 5 9 8 7 8 7 18 11 19 8 15 18 7 4 7 7 10 11 10 6 7 11 13 11 7 9 13 15 16 19 24 29 33 37 41 45 47 50 52
6 3 9 17 7 2 8 7 10 12 7 23 18 12 10 11 11 4 3 3 8 10 11 9 6 9 11 13 14 16 18 23 26 27 28 30 33 37 42 46 50 54 57 59
7 6 5 4 1 5 5 4 6 26 40 19 29 25 13 23 15 6 3 8 7 7 8 9 11 13 17 17 17 19 24 28 31 32 34 37 38 42 46 49 50 52 56 61
7 8 6 3 12 8 12 24 22 19 11 11 4 19 14 15 20 9 8 9 9 8 9 11 14 17 19 21 23 24 27 31 34 36 38 40 42 44 46 48 50 50 51 52
14 11 6 8 6 3 15 31 29 15 12 12 21 20 13 7 14 14 14 12 10 7 9 12 17 20 22 25 28 32 35 38 40 42 44 46 47 49 50 52 54 53 51 51
14 12 4 6 10 11 10 2 9 28 9 23 11 8 13 15 15 16 17 20 15 11 7 7 12 17 24 29 32 35 39 42 45 47 50 53 54 54 53 54 56 56 56 53
18 9 7 8 8 9 10 10 14 15 17 33 20 13 19 21 19 10 20 16 16 10 5 10 16 23 29 35 40 44 47 50 53 55 57 59 62 62 62 60 58 58 59 56
7 4 6 5 8 17 14 8 20 12 14 9 33 26 25 29 8 7 28 15 9 4 7 14 22 30 38 44 49 52 52 53 53 54 56 58 61 64 66 65 64 61 61 61
12 6 23 15 7 13 8 11 30 12 13 4 12 23 37 8 5 28 15 10 2 7 16 24 31 39 46 49 48 47 47 47 48 49 51 53 55 58 60 62 62 64 61 60
18 15 7 6 8 12 18 5 17 10 16 24 29 26 24 24 20 14 6 7 15 21 27 33 39 45 46 44 44 41 40 41 41 44 47 49 52 56 61 65 63 61 62 61
4 11 9 14 10 2 22 2 8 19 41 25 29 21 18 12 7 6 12 19 25 30 34 36 39 38 34 39 39 37 39 42 45 48 52 55 57 57 60 65 64 62 61 63
7 7 5 7 7 2 11 23 25 29 34 31 24 13 5 2 8 14 19 23 32 33 32 34 34 34 33 38 41 46 48 50 53 56 58 59 60 60 60 58 59 59 57 58
9 17 11 4 1 12 12 24 24 25 20 14 7 1 7 14 18 25 32 35 37 38 38 41 44 46 47 51 52 54 57 59 61 62 61 61 61 60 61 58 56 53 47 45
17 12 9 9 29 13 24 30 22 17 14 10 11 15 20 26 32 36 40 40 42 44 44 47 49 56 57 59 62 62 64 65 65 67 64 62 61 56 54 52 47 39 33 26
Wind_Direction_850mb
81 103 188 194 163 121 133 122 182 240 56 227 238 267 273 282 285 276 273 270 271 268 269 267 260 254 252 246 245 245 245 243 241 240 240 241 243 245 245 250 251 251 249 249
52 208 207 129 131 118 128 124 211 302 45 157 350 284 267 272 264 266 274 275 273 277 279 273 271 262 251 248 246 245 245 244 243 242 244 244 246 248 250 254 255 254 252 250
155 208 142 128 131 140 170 159 199 193 30 52 349 291 308 293 274 275 270 275 277 277 283 272 284 271 253 245 242 242 244 244 245 244 243 244 244 247 248 250 253 256 257 253
200 142 135 135 162 138 183 201 172 148 100 230 23 283 299 295 299 286 280 301 294 281 272 283 283 262 244 243 240 239 242 244 245 244 243 244 245 246 252 252 255 255 260 255
231 165 144 156 192 156 209 123 135 88 100 54 329 19 271 337 284 275 322 12 24 12 252 232 270 45 258 247 244 244 241 242 244 244 244 245 247 251 255 257 256 256 258 256
147 108 156 171 75 136 151 84 52 54 87 313 226 181 275 209 220 200 336 26 14 36 66 73 68 57 60 76 240 253 250 244 245 246 245 246 247 250 253 256 259 263 265 264
41 217 212 136 83 28 91 96 20 359 7 227 328 150 246 257 246 253 320 323 346 359 7 24 30 20 357 331 312 296 278 259 251 249 247 248 249 251 255 259 263 266 268 269
156 242 167 184 180 169 192 163 156 192 197 247 71 232 249 224 296 278 270 339 19 37 52 64 39 344 337 330 319 312 290 271 265 257 251 247 247 252 257 261 265 267 269 270
158 261 191 138 154 142 198 214 154 103 24 60 225 287 300 109 54 89 84 80 67 71 77 66 56 36 15 360 347 335 325 303 284 270 264 258 255 257 261 264 265 267 267 267
195 124 358 159 113 33 160 160 82 5 135 252 266 268 226 213 154 114 91 73 62 70 72 67 64 60 57 41 28 17 18 28 58 110 133 246 256 259 259 260 264 268 270 269
144 133 304 108 212 160 137 188 61 129 156 181 235 253 223 162 164 146 129 69 61 69 75 76 70 64 62 57 60 73 89 97 84 67 43 10 331 307 299 295 288 282 280 277
188 138 174 199 263 256 323 202 159 150 217 252 174 252 310 189 142 126 106 71 63 73 93 98 86 72 64 65 75 87 86 64 40 23 350 329 319 312 309 304 297 292 291 288
174 205 64 348 346 356 216 203 167 104 80 208 155 256 46 98 127 81 94 58 74 106 126 125 114 56 43 58 63 38 349 337 326 310 297 289 288 288 288 290 290 290 290 290
75 92 178 216 145 317 196 191 181 160 187 233 225 257 175 227 168 110 96 110 123 97 91 85 63 38 24 18 0 349 338 332 331 328 321 311 303 296 292 289 288 287 285 285
116 172 175 229 117 262 249 246 213 206 228 198 265 232 194 202 193 199 190 157 152 114 82 58 42 31 23 18 11 355 344 339 336 329 324 318 311 306 301 298 295 292 290 288
186 175 138 257 198 210 257 247 243 248 273 289 179 258 206 234 234 212 184 171 145 103 69 54 44 31 20 14 8 1 352 345 340 335 329 325 323 317 313 309 303 297 291 288
165 146 121 264 166 160 285 231 212 213 202 167 230 245 170 207 225 188 172 158 139 103 66 48 35 24 13 5 358 352 346 342 339 338 336 333 329 327 323 320 317 313 307 301
152 159 106 186 154 217 244 42 197 215 217 220 238 163 173 189 180 170 165 159 148 132 99 52 28 13 0 355 348 344 339 334 332 331 329 328 329 329 327 322 319 317 314 310
174 165 159 179 195 303 293 198 171 171 253 220 223 175 167 149 150 158 161 155 150 131 69 18 5 352 345 339 336 334 331 328 326 326 325 325 325 326 326 326 324 321 317 315
123 275 173 148 196 202 229 200 153 127 280 200 192 184 176 157 172 231 172 152 137 89 359 340 336 335 333 330 327 325 325 323 322 319 319 319 319 319 318 319 318 318 317 317
188 199 218 191 214 281 254 166 148 138 240 158 167 176 163 145 173 142 149 145 33 344 337 335 336 336 332 326 321 319 318 316 316 315 315 314 313 311 309 308 309 310 311 312
179 176 188 148 199 263 180 110 167 166 119 129 121 123 120 122 119 117 94 8 346 337 331 326 326 328 327 317 314 313 311 311 313 315 316 317 317 316 312 309 306 304 305 306
223 187 183 179 206 345 183 58 196 154 143 138 131 121 118 109 78 357 333 322 319 321 320 319 321 322 322 312 309 309 309 310 309 310 312 313 313 314 313 312 311 306 304 303
268 186 158 75 294 179 132 129 116 131 131 132 127 124 94 359 315 310 308 304 303 303 301 300 306 310 312 305 305 306 303 303 305 306 308 309 309 309 310 310 310 310 311 309
187 142 165 258 154 108 119 142 130 129 137 152 154 178 313 310 308 305 303 299 297 297 296 296 298 302 306 303 298 298 300 302 302 301 303 304 305 306 307 307 308 308 309 310
183 167 166 215 185 170 187 171 166 173 191 224 259 277 288 294 295 295 295 297 297 297 298 297 299 299 299 299 298 296 296 297 299 299 300 303 302 303 303 303 304 306 309 310